Location: Dackenheim
(49.5215°N, 8.1854°E)
Time: 22:55:50
(UTC+00:00)

CUTE-I - Visible Passes

Search period start: 13 March 2026 00:00
Search period end: 23 March 2026 00:00
Orbit: 803 x 819 km, 98.7° (Epoch: 13 March)

Date Brightness Start Highest point End Pass type
(mag) Time Alt. Az. Time Alt. Az. Time Alt. Az.
14 Mar ? 18:28:32 10° WSW 18:31:25 15° W 18:34:18 10° NW visible
15 Mar ? 04:57:25 10° NE 05:01:44 25° E 05:06:03 10° SSE visible
15 Mar ? 18:03:33 10° SW 18:07:40 23° W 18:11:48 10° NW visible
16 Mar ? 04:34:44 10° NE 04:38:01 16° E 04:41:16 10° SE visible
18 Mar ? 18:35:17 10° WSW 18:37:38 13° W 18:40:00 10° WNW visible
19 Mar ? 18:10:00 10° SW 18:13:51 20° W 18:17:43 10° NW visible
20 Mar ? 04:40:35 10° NE 04:44:12 18° E 04:47:49 10° SE visible
21 Mar ? 04:18:39 10° ENE 04:20:24 12° E 04:22:09 10° ESE visible
22 Mar ? 18:42:14 10° WSW 18:43:51 11° W 18:45:28 10° WNW visible
